Satellite: CO-58
Catalog number: 28895
Epoch time:      06284.67198047
Element set:    0558
Inclination:      098.1487 deg
RA of node:       181.0374 deg
Eccentricity:    0.0017909
Arg of perigee:   165.0252 deg
Mean anomaly:     195.1462 deg
Mean motion:   14.59454716 rev/day
Decay rate:       1.59e-06 rev/day^2
Epoch rev:           05084
Checksum:              349

Satellite: NCUBE2
Catalog number: 28897
Epoch time:      06283.26579192
Element set:    0132
Inclination:      098.1511 deg
RA of node:       179.6330 deg
Eccentricity:    0.0017095
Arg of perigee:   170.4767 deg
Mean anomaly:     189.6751 deg
Mean motion:   14.59610850 rev/day
Decay rate:       1.70e-06 rev/day^2
Epoch rev:           04291
Checksum:              319

/EX



_______________________________________________
Via the Keps mailing list courtesy of AMSAT-NA
Keps@amsat.org
http://amsat.org/mailman/listinfo/keps

--- ViaMAIL!/WC v1.60d
 * Origin: Chowdanet (401-724-4410) telnet://chowdanet.com  (1:323/120)